Regional Weather Roundup
Issued by NWS State College, PA

Home | Current Version | Previous Version | Graphics & Text | Print | Product List | Glossary Off
Versions: 1 2 3 4 5 6 7 8 9 10 11 12 13 14 15 16 17 18 19 20 21 22 23 24 25 26 27 28 29 30 31 32 33 34 35 36 37 38 39 40 41 42 43 44 45 46 47 48 49 50

000
ASUS41 KCTP 260410
RWRCTP

REGIONAL WEATHER ROUNDUP
NATIONAL WEATHER SERVICE STATE COLLEGE PA
1200 AM EDT SUN APR 26 2015

Note: "fair" indicates few or no clouds below 12,000 feet with no
significant weather and/or obstructions to visibility.

* = STATION THAT DOES NOT REPORT PRECIPITATION /E.G. RAIN...SNOW...ETC/
    THUNDER OR FOG.

PAZ002>004-007>009-013>016-020>023-029>032-260500-
WESTERN PENNSYLVANIA

CITY           SKY/WX    TMP DP  RH WIND       PRES   REMARKS
ERIE           PTCLDY    39  25  57 NE9       29.76F
MEADVILLE      MOCLDY    40  25  55 NE14      29.72F
FRANKLIN*      MOCLDY    39  25  56 N9        29.72S
NEW CASTLE     FAIR      43  29  58 N8        29.71S
BEAVER COUNTY  NOT AVBL
BUTLER*        MOCLDY    45  25  45 NE9       29.69R
PITTSBURGH INT MOCLDY    49  21  33 N9        29.66R
PITTSBURGH     CLOUDY    47  23  38 S9        29.66R
INDIANA*       MOCLDY    41  27  56 CALM      29.69S
LATROBE        MOCLDY    46  32  57 CALM      29.67R
WASHINGTON CO* CLOUDY    45  36  70 S3        29.69S
$$

PAZ004>006-010>012-017>019-024>028-033>037-041-042-045-046-049>053-260500-
CENTRAL PENNSYLVANIA

CITY           SKY/WX    TMP DP  RH WIND       PRES   REMARKS
BRADFORD       PTCLDY    37  25  61 NE6       29.72F
DUBOIS         MOCLDY    44  23  43 NE10      29.67F
CLEARFIELD     MOCLDY    41  23  48 NE9       29.68F
JOHNSTOWN      CLOUDY    41  26  55 CALM      29.64F
ALTOONA        CLOUDY    40  28  62 CALM      29.67F
STATE COLLEGE  MOCLDY    42  26  52 NE12      29.69F
WILLIAMSPORT   MOCLDY    47  25  42 NE7       29.73S
SELINSGROVE    MOCLDY    41  32  70 N3        29.72F
FT INDIANTOWN  MOCLDY    43  27  52 E3        29.70F
CAPITAL CITY   CLOUDY    47  29  49 CALM      29.70F
HARRISBURG     CLOUDY    48  32  53 CALM      29.69F
YORK           CLOUDY    42  31  64 S3        29.70F
$$

PAZ038>040-043-044-047-048-054-055-060>062-067>071-260500-
EASTERN PENNSYLVANIA

CITY           SKY/WX    TMP DP  RH WIND       PRES   REMARKS
SCRANTON       PTCLDY    43  25  49 CALM      29.72S
MOUNT POCONO   MOCLDY    41  24  51 N9        29.69S
ALLENTOWN      PTCLDY    47  27  45 N5        29.71R
QUAKERTOWN*    MOCLDY    45  28  53 N5        29.71S
READING        MOCLDY    47  25  42 CALM      29.70S
LANCASTER      CLOUDY    45  30  55 W7        29.70F
COATESVILLE    CLOUDY    45  36  70 CALM      29.71F
POTTSTOWN      MOCLDY    44  28  53 CALM      29.72S
BLUE BELL      CLOUDY    48  32  53 CALM      29.70F
DOYLESTOWN     MOCLDY    46  26  45 CALM      29.70R
WILLOW GROVE   NOT AVBL
NORTH PHILA    CLOUDY    50  27  40 W9        29.72R
PHILADELPHIA   CLOUDY    50  36  58 SW9       29.72S
$$



USA.gov is the U.S. government's official web portal to all federal, state and local government web resources and services.